Sisseton, SD

12:49 PM CDT on May 23, 2018 (GMT -0500)
Sisseton

Weather History for K8D3 - December, 2011

Change the Weather History Date:

Sunday, December 25, 2011

  Actual Average Record
Temperature  
Mean Temperature 38 °F 14 °F  
Max Temperature 45 °F 24 °F 54 °F (1994)
Min Temperature 30 °F 5 °F -18 °F (1996)
Degree Days  
Heating Degree Days 27 51  
Month to date heating degree days 1003 1183  
Since 1 July heating degree days 2573 3034  
Cooling Degree Days 0 0  
Month to date cooling degree days 0 0  
Year to date cooling degree days 642 527  
Moisture  
Dew Point 20 °F    
Average Humidity 54    
Maximum Humidity 69    
Minimum Humidity 39    
Precipitation  
Precipitation 0.00 in 0.01 in 0.70 in (2016)
Month to date precipitation 0.10 0.31  
Year to date precipitation 21.25 22.25  
Snow  
Snow 0.00 in - - ()
Month to date snowfall 1.0  
Since 1 July snowfall 1.7  
Snow Depth 0.00 in    
Sea Level Pressure  
Sea Level Pressure 30.23 in    
Wind  
Wind Speed 13 mph (WNW)    
Max Wind Speed 22 mph    
Max Gust Speed 28 mph    
T = Trace of Precipitation, MM = Missing Value Source: NWS Daily Summary

Daily Weather History Graph

Daily Weather History Graph

Search for Another Location

Airport or City:

Astronomy

Dec. 25, 2011 Rise Set
Actual Time 8:07 AM CST 4:48 PM CST
Civil Twilight 7:32 AM CST 5:23 PM CST
Nautical Twilight 6:55 AM CST 6:00 PM CST
Astronomical Twilight 6:18 AM CST 6:37 PM CST
Moon 8:44 AM CST (12/25) 6:13 PM CST (12/25)
Length of Visible Light 9h 50m
Length of Day
8h 41m
New Moon, 1% of the Moon is Illuminated
Dec 25
New Moon
Jan 1
First Quarter
Jan 9
Full
Jan 16
Last Quarter
Jan 23
New

Hourly Weather History & Observations

Time (CST) Temp. Windchill Dew Point Humidity Pressure Visibility Wind Dir Wind Speed Gust Speed Precip Events Conditions
12:56 AM 37.0 °F 27.0 °F 19.9 °F 50% 30.15 in - NW 18.4 mph 27.6 mph N/A   Unknown
1:56 AM 36.0 °F 25.6 °F 21.0 °F 55% 30.15 in - NW 18.4 mph - N/A   Unknown
2:56 AM 35.1 °F 25.2 °F 21.0 °F 57% 30.18 in - NW 16.1 mph - N/A   Unknown
3:56 AM 33.1 °F 22.6 °F 21.0 °F 61% 30.20 in - NW 16.1 mph - N/A   Unknown
4:56 AM 34.0 °F 23.8 °F 21.0 °F 59% 30.23 in - NW 16.1 mph - N/A   Unknown
5:56 AM 33.1 °F 22.2 °F 21.0 °F 61% 30.26 in - NW 17.3 mph - N/A   Unknown
6:56 AM 30.9 °F 20.7 °F 21.0 °F 67% 30.29 in - NNW 13.8 mph - N/A   Unknown
7:56 AM 30.9 °F 20.2 °F 21.0 °F 67% 30.32 in - NW 15.0 mph - N/A   Unknown
8:56 AM 30.0 °F 19.5 °F 19.9 °F 66% 30.34 in - NW 13.8 mph - N/A   Unknown
9:56 AM 35.1 °F 24.8 °F 21.0 °F 57% 30.36 in - NNW 17.3 mph 25.3 mph N/A   Unknown
10:56 AM 37.9 °F 29.2 °F 21.0 °F 51% 30.36 in - NNW 15.0 mph - N/A   Unknown
11:56 AM 41.0 °F 33.1 °F 21.0 °F 45% 30.35 in - NNW 15.0 mph - N/A   Unknown
12:56 PM 43.0 °F 36.8 °F 19.0 °F 38% 30.32 in - NNW 11.5 mph - N/A   Unknown
1:56 PM 43.0 °F 37.7 °F 19.9 °F 40% 30.30 in - NNW 9.2 mph - N/A   Unknown
2:56 PM 43.0 °F 41.3 °F 19.9 °F 40% 30.28 in - WSW 3.5 mph - N/A   Unknown
3:56 PM 39.9 °F 36.7 °F 21.0 °F 47% 30.29 in - West 4.6 mph - N/A   Unknown
4:56 PM 37.9 °F 31.5 °F 21.0 °F 51% 30.27 in - WSW 9.2 mph - N/A   Unknown
5:56 PM 36.0 °F 29.6 °F 19.9 °F 52% 30.26 in - South 8.1 mph - N/A   Unknown
6:56 PM 33.1 °F 26.9 °F 19.0 °F 56% 30.23 in - South 6.9 mph - N/A   Unknown
7:56 PM 32.0 °F 25.6 °F 19.0 °F 59% 30.19 in - South 6.9 mph - N/A   Unknown
8:56 PM 35.1 °F 25.9 °F 19.0 °F 52% 30.14 in - SSW 13.8 mph - N/A   Unknown
9:56 PM 30.9 °F 24.3 °F 18.0 °F 59% 30.09 in - South 6.9 mph - N/A   Unknown
10:56 PM 37.9 °F 28.5 °F 19.0 °F 47% 30.04 in - SSW 17.3 mph 25.3 mph N/A   Unknown
11:56 PM 35.1 °F 27.9 °F 19.0 °F 52% 29.99 in - South 9.2 mph - N/A   Unknown